Quick Transport Solutions Inc.

QuickTSI Load Board


Search Freight by Criteria



Load Search Results

Page 5 of 923 results
Pickup City Drop City Pickup Date Delivery Equipment Weight Size Company Phone
Buffalo, NYRichmond, VA10/22/2018 Mon Flatbed48Full 48Cannon logistic LLC.(734) 281-9680
Buffalo, NYSaint Louis, MO10/22/2018 Mon10/23/2018 TueVan42Full 53Total Quality Logistics(800) 580-3101 Post ID 719338 /
Buffalo, NYScranton, PA10/22/2018 Mon Flatbed48Full 48Cannon logistic LLC.(734) 281-9680
Buffalo, NYStanwood, WA10/22/2018 Mon Step Deck10Partial 20Trinity Logistics Inc.(208) 352-3536
Buffalo, NYVersailles, OH10/22/2018 Mon Flatbed48Full 48Cannon logistic LLC.(734) 281-9680


Buffalo, NYWest Kingston, RI10/22/2018 Mon Flatbed48Full 48Cannon logistic LLC.(734) 281-9680
Buffalo, NYRaleigh, NC10/22/2018 10:00 Mon10/23/2018 TueReefer20Full 48Total Quality Logistics(800) 580-3101 Post ID 395392 /
Buffalo, NYLakewood, NJ10/22/2018 15:00 Mon10/23/2018 TueReefer37Full 48Total Quality Logistics(800) 580-3101 Post ID 371909 / STOP OFF PHILADELPHIA PA LOAD IN FRIENDSHIP NY
Buffalo, NYBrunswick, GA10/23/2018 Tue10/25/2018 ThuVan or Reefer32Full 48Total Quality Logistics(800) 580-3101 Post ID 717540 /
Buffalo, NYCongers, NY10/24/2018 Wed Van44Full 53Coyote Logistics(773) 904-9709 x174161 --- LD# 15042748
Buffalo, NYOrwell, NY10/24/2018 Wed10/24/2018 WedHotshot9Partial 40ShipEX Logistics(877) 697-4473
Buffalo, NYMarion, NY10/30/2018 Tue10/30/2018 TueHotshot9Partial 40ShipEX Logistics(877) 697-4473
Buffalo, NYSugarcreek, OH10/30/2018 Tue Van43Full 53Coyote Logistics(773) 904-9709 x174150 --- LD# 15051076
Camden, NYCheshire, CT10/18/2018 Thu10/18/2018 Thu48Full 48Total Quality Logistics(800) 580-3101 Post ID 906713 /
Camden, NYYalesville, CT10/18/2018 Thu10/18/2018 Thu48Full 48Total Quality Logistics(800) 580-3101 Post ID 958557 /
Camden, NYCheshire, CT10/19/2018 Fri Flatbed48Full 53Eagle Transportation Services Inc.(800) 444-7340


Camden, Ny, NYCheshire, Ct, CT10/19/2018 Fri Flatbed or Step Deck Mark Miller Trucking, Inc.Dispatch 888-290-1593
Camden, Ny, NYYalesville, Ct, CT10/19/2018 Fri Flatbed or Step Deck Mark Miller Trucking, Inc.Dispatch 888-290-1593
Camden, Ny, NYCheshire, Ct, CT10/22/2018 Mon Flatbed or Step Deck Mark Miller Trucking, Inc.Dispatch 888-290-1593
Camden, Ny, NYYalesville, Ct, CT10/22/2018 Mon Flatbed or Step Deck Mark Miller Trucking, Inc.Dispatch 888-290-1593
Canandaigua, NYCherokee, IA10/23/2018 Tue10/25/2018 ThuVan40Full 53Schmieding Produce(800) 643-3604 Load Contact Information: Shenekia Sanders 18003643604
Champlain, NYHazleton, PA10/22/2018 Mon10/22/2018 MonVan5Full 53Total Quality Logistics(800) 580-3101 Post ID 938904 /
Champlain, NYSparks, NV10/22/2018 Mon10/26/2018 FriReefer40Full 53Schmieding Produce(800) 643-3604 Load Contact Information: Brian Dillon 18006433604
Cheektowaga, NYE Windsor, NJ10/19/2018 15:00 Fri10/22/2018 08:30 MonVan0Full 53Schneider National Carriers(855) 476-4786
Cheektowaga, NYSecaucus, NJ10/22/2018 08:00 Mon10/23/2018 TueVan or Reefer20Full 48Total Quality Logistics(800) 580-3101 Post ID 369948 /
Clifton Park, NYAlbany, NY10/19/2018 Fri10/20/2018 SatVan0Full 48Total Quality Logistics(800) 580-3101 Post ID 931063 /
Clifton Park, NYAlbany, NY10/19/2018 Fri10/20/2018 SatVan1Full 48Total Quality Logistics(800) 580-3101 Post ID 976503 /
Clintondale, NYPunta Gorda, FL10/20/2018 Sat10/22/2018 MonReefer40Full 48Total Quality Logistics(800) 580-3101 Post ID 942002 /
Coeymans, NYJohnstown, PA10/22/2018 09:00 Mon10/23/2018 Tue20Full 48Total Quality Logistics(800) 580-3101 Post ID 397953 /
College Point, NYSpringboro, OH10/22/2018 11:00 Mon Van45Full 53JAG ENTERPRISES(631) 584-4750
Conklin, NYChampaign, IL10/18/2018 Thu10/18/2018 ThuReefer42Full 53Total Quality Logistics(800) 580-3101 Post ID 386265 /


Conklin, NYBattle Creek, MI10/21/2018 Sun Reefer34Full 48Allen Lund Company(800) 953-5863 (NY5698492)
Corfu, NYLake Odessa, MI10/25/2018 07:00 Thu10/26/2018 14:00 FriVan43Full 53Go Logistics(419) 666-6721 Load ID 1000115719 Load Instructions NO REEFERS - Baled/Boxed/Palletized - 2 Straps or Load Locks Required Goods Motor Block (Baled/Boxed/Palletized)
Cuba, NYCharlotte, NC10/22/2018 Mon10/23/2018 TueReefer39Full 48Total Quality Logistics(800) 580-3101 Post ID 323061 /
Cuba, NYWoodridge, IL10/22/2018 Mon Van0Full 53Freight Management Inc(630) 627-6560
Delhi, NYGreensburg, PA10/21/2018 Sun Reefer0Full 53Coyote Logistics(773) 904-9709 ext 174162
Delhi, NYMaspeth, NY10/22/2018 Mon Reefer41Full 53Coyote Logistics Rate:$1200(773) 904-9709 174220
Delhi, NYConklin, NY10/23/2018 14:00 Tue10/24/2018 WedReefer42Full 53Total Quality Logistics(800) 580-3101 Post ID 322336 /
Delhi, NYConklin, NY10/23/2018 14:00 Tue10/24/2018 WedReefer42Full 53Total Quality Logistics(800) 580-3101 Post ID 722422 /
Delhi, NYConklin, NY10/23/2018 14:00 Tue10/24/2018 WedReefer42Full 53Total Quality Logistics(800) 580-3101 Post ID 946108 /
Dover Plains, NYVan Buren Township, MI10/19/2018 Fri Van41Full 53Coyote Logistics(773) 904-9709 x174161 and reference load 14997474
Dunkirk, NYCharlotte, NC10/19/2018 Fri Van or Reefer43Full 53Coyote Logistics(773) 904-9709 ext174157
Dunkirk, NYColumbus, OH10/20/2018 Sat10/21/2018 Sun44Full 48Integrity Express Logistics Rate:$650(937) 684-8180 Contact: Ben Mecklenborg x8802
Dunkirk, NYGreensboro, NC10/20/2018 Sat10/22/2018 MonReefer44Full 53Logistic Dynamics Rate:$1200(916) 209-6400 Cabbage Load/32 F Temp. Reference Load #PL1226134
Dunkirk, NYGreensboro, NC10/22/2018 Mon10/23/2018 TueReefer44Full 53Logistic Dynamics Rate:$1200(916) 209-6400 Cabbage Load/32 F Temp. Reference Load #PL1226067
Dunkirk, NYJessup, MD10/22/2018 Mon10/23/2018 TueReefer44Full 53Logistic Dynamics Rate:$1000(916) 209-6400 Cabbage Load/32 F Temp. Reference Load #PL1226070
Dunkirk, NYGreensboro, NC10/23/2018 Tue10/24/2018 WedReefer44Full 53Logistic Dynamics Rate:$1200(916) 209-6400 Cabbage Load/32 F Temp. Reference Load #PL1226068
Dunkirk, NYJessup, MD10/23/2018 Tue10/24/2018 WedReefer44Full 53Logistic Dynamics Rate:$1000(916) 209-6400 Cabbage Load/32 F Temp. Reference Load #PL1226071
Dunkirk, NYGreensboro, NC10/24/2018 Wed10/25/2018 ThuReefer44Full 53Logistic Dynamics Rate:$1200(916) 209-6400 Cabbage Load/32 F Temp. Reference Load #PL1226069
Dunkirk, NYJessup, MD10/24/2018 Wed10/25/2018 ThuReefer44Full 53Logistic Dynamics Rate:$1000(916) 209-6400 Cabbage Load/32 F Temp. Reference Load #PL1226072
About QuickTSI

QuickTSI is your one-stop-shop for everything you need to run your transportation and freight logistics business. Our website allows you to post load or find trucks, post trucks or find loads, look up carrier profiles, view trucking companies, find truck driving jobs, and DOT medical examniers.

Contact Us

Quick Transport Solutions, Inc.
11501 Dublin Blvd. Suite 200
Dublin, CA 94568

510-887-9300
510-284-7280

Mailing Address

Quick Transport Solutions, Inc.
PO Box 3686
Hayward, CA 94544-3686

Terms & Conditions    Privacy Policy

© 2011-2018 Quick Transport Solutions Inc.